When you browse on this site, cookies collect data to enhance your experience and personalize the content and advertising you see.
Visit our Privacy Policy to learn more. By continuing to use the site, you agree to this use of cookies and data.
  • In Hungary
  • List of Countries
  • For 7 days
  • Water Temperature
  • Weather Map
  • News
  • Weather Widgets
  • user-avatar
    Login

    Hourly Weather Elizabethtown

    Today, 19 November, Tuesday

    Time Temperature Precipitation Wind Pressure Humidity
    00:00 +3°C° 0 mm 1 mps 736 mmHg 91%
    01:00 +2°C° 0 mm 2 mps 736 mmHg 91%
    02:00 +3°C° 0 mm 2 mps 736 mmHg 91%
    03:00 +3°C° 0 mm 2 mps 736 mmHg 90%
    04:00 +3°C° 0 mm 2 mps 736 mmHg 92%
    05:00 +3°C° 0 mm 2 mps 736 mmHg 93%
    06:00 +3°C° 0 mm 2 mps 736 mmHg 95%
    07:00 +4°C° 0.2 mm 2 mps 736 mmHg 94%
    08:00 +3°C° 0.2 mm 3 mps 736 mmHg 92%
    09:00 +4°C° 0.2 mm 3 mps 736 mmHg 91%
    10:00 +5°C° 0.3 mm 3 mps 736 mmHg 91%
    11:00 +5°C° 0.3 mm 3 mps 736 mmHg 92%
    12:00 +7°C° 0.3 mm 3 mps 735 mmHg 92%
    13:00 +6°C° 0.3 mm 4 mps 736 mmHg 90%
    14:00 +7°C° 0.3 mm 4 mps 736 mmHg 89%
    15:00 +8°C° 0.3 mm 4 mps 736 mmHg 87%
    16:00 +7°C° 0.1 mm 4 mps 737 mmHg 88%
    17:00 +7°C° 0.1 mm 4 mps 737 mmHg 89%
    18:00 +6°C° 0.1 mm 4 mps 738 mmHg 89%
    19:00 +6°C° 0 mm 4 mps 738 mmHg 90%
    20:00 +5°C° 0 mm 3 mps 739 mmHg 91%
    21:00 +5°C° 0 mm 3 mps 739 mmHg 92%
    22:00 +4°C° 0 mm 3 mps 740 mmHg 93%
    23:00 +4°C° 0 mm 3 mps 740 mmHg 93%

    Tomorrow, 20 November, Wednesday

    Time Temperature Precipitation Wind Pressure Humidity
    00:00 +4°C° 0 mm 2 mps 740 mmHg 93%
    01:00 +4°C° 0 mm 2 mps 741 mmHg 94%
    02:00 +3°C° 0 mm 2 mps 742 mmHg 95%
    03:00 +3°C° 0 mm 2 mps 742 mmHg 95%
    04:00 +3°C° 0 mm 2 mps 743 mmHg 96%
    05:00 +2°C° 0 mm 2 mps 743 mmHg 96%
    06:00 +3°C° 0 mm 1 mps 744 mmHg 96%
    07:00 +4°C° 0 mm 1 mps 745 mmHg 92%
    08:00 +6°C° 0 mm 1 mps 745 mmHg 87%
    09:00 +7°C° 0 mm 1 mps 746 mmHg 83%
    10:00 +9°C° 0 mm 1 mps 745 mmHg 76%
    11:00 +10°C° 0 mm 1 mps 745 mmHg 70%
    12:00 +12°C° 0 mm 1 mps 745 mmHg 64%
    13:00 +12°C° 0 mm 1 mps 745 mmHg 63%
    14:00 +12°C° 0 mm 1 mps 745 mmHg 62%
    15:00 +12°C° 0 mm 1 mps 745 mmHg 61%
    16:00 +11°C° 0 mm 1 mps 745 mmHg 68%
    17:00 +9°C° 0 mm 1 mps 745 mmHg 74%
    18:00 +7°C° 0 mm 2 mps 745 mmHg 81%
    19:00 +7°C° 0 mm 2 mps 745 mmHg 82%
    20:00 +6°C° 0 mm 2 mps 745 mmHg 84%
    21:00 +6°C° 0 mm 2 mps 745 mmHg 86%
    22:00 +6°C° 0 mm 2 mps 745 mmHg 86%
    23:00 +6°C° 0 mm 2 mps 745 mmHg 86%

    Day after tomorrow, 21 November, Thursday

    Time Temperature Precipitation Wind Pressure Humidity
    00:00 +6°C° 0 mm 2 mps 744 mmHg 86%
    01:00 +5°C° 0 mm 3 mps 744 mmHg 84%
    02:00 +5°C° 0 mm 3 mps 744 mmHg 83%
    03:00 +5°C° 0 mm 3 mps 744 mmHg 81%
    04:00 +5°C° 0 mm 4 mps 743 mmHg 79%
    05:00 +6°C° 0 mm 4 mps 743 mmHg 76%
    06:00 +6°C° 0 mm 4 mps 743 mmHg 73%
    07:00 +7°C° 0 mm 5 mps 743 mmHg 69%
    08:00 +9°C° 0 mm 5 mps 743 mmHg 66%
    09:00 +10°C° 0 mm 5 mps 743 mmHg 62%
    10:00 +10°C° 0.1 mm 6 mps 743 mmHg 63%
    11:00 +10°C° 0.1 mm 6 mps 742 mmHg 64%
    12:00 +10°C° 0.1 mm 6 mps 742 mmHg 66%
    13:00 +11°C° 0 mm 6 mps 741 mmHg 65%
    14:00 +11°C° 0 mm 6 mps 741 mmHg 64%
    15:00 +13°C° 0 mm 6 mps 740 mmHg 64%
    16:00 +11°C° 0 mm 6 mps 740 mmHg 66%
    17:00 +12°C° 0 mm 5 mps 740 mmHg 69%
    18:00 +10°C° 0 mm 5 mps 741 mmHg 72%
    19:00 +12°C° 0 mm 5 mps 740 mmHg 71%
    20:00 +11°C° 0 mm 6 mps 740 mmHg 70%
    21:00 +13°C° 0 mm 6 mps 740 mmHg 68%
    22:00 +13°C° 0 mm 6 mps 740 mmHg 70%
    23:00 +11°C° 0 mm 6 mps 739 mmHg 72%

    22 November, Friday

    Time Temperature Precipitation Wind Pressure Humidity
    00:00 +11°C° 0 mm 6 mps 739 mmHg 74%
    01:00 +11°C° 2.4 mm 6 mps 738 mmHg 79%
    02:00 +11°C° 2.4 mm 7 mps 738 mmHg 84%
    03:00 +10°C° 2.4 mm 7 mps 737 mmHg 90%
    04:00 +11°C° 2.6 mm 7 mps 738 mmHg 91%
    05:00 +11°C° 2.6 mm 7 mps 738 mmHg 91%
    06:00 +11°C° 2.6 mm 7 mps 738 mmHg 92%
    07:00 +11°C° 0.9 mm 6 mps 738 mmHg 93%
    08:00 +10°C° 0.9 mm 5 mps 738 mmHg 94%
    09:00 +11°C° 0.9 mm 4 mps 739 mmHg 95%
    10:00 +10°C° 0.9 mm 4 mps 739 mmHg 94%
    11:00 +8°C° 0.9 mm 4 mps 739 mmHg 94%
    12:00 +7°C° 0.9 mm 4 mps 738 mmHg 93%
    13:00 +7°C° 1.3 mm 4 mps 739 mmHg 93%
    14:00 +6°C° 1.3 mm 4 mps 739 mmHg 92%
    15:00 +5°C° 1.3 mm 4 mps 739 mmHg 92%
    16:00 +5°C° 0.5 mm 4 mps 739 mmHg 90%
    17:00 +5°C° 0.5 mm 4 mps 740 mmHg 89%
    18:00 +4°C° 0.5 mm 4 mps 740 mmHg 87%
    19:00 +4°C° 0.1 mm 3 mps 740 mmHg 85%
    20:00 +4°C° 0.1 mm 3 mps 741 mmHg 83%
    21:00 +4°C° 0.1 mm 3 mps 741 mmHg 81%
    22:00 +4°C° 0 mm 3 mps 741 mmHg 80%
    23:00 +3°C° 0 mm 4 mps 741 mmHg 79%

    23 November, Saturday

    Time Temperature Precipitation Wind Pressure Humidity
    00:00 +3°C° 0 mm 4 mps 742 mmHg 79%
    01:00 +1°C° 0 mm 4 mps 742 mmHg 77%
    02:00 0°C° 0 mm 4 mps 742 mmHg 76%
    03:00 0°C° 0 mm 3 mps 742 mmHg 75%
    04:00 -1°C° 0 mm 3 mps 742 mmHg 76%
    05:00 -2°C° 0 mm 3 mps 742 mmHg 76%
    06:00 -4°C° 0 mm 3 mps 742 mmHg 77%
    07:00 -2°C° 0 mm 3 mps 743 mmHg 73%
    08:00 -1°C° 0 mm 3 mps 743 mmHg 69%
    09:00 0°C° 0 mm 3 mps 744 mmHg 65%
    10:00 +2°C° 0 mm 3 mps 744 mmHg 58%
    11:00 +3°C° 0 mm 3 mps 743 mmHg 52%
    12:00 +5°C° 0 mm 2 mps 743 mmHg 45%
    13:00 +6°C° 0 mm 2 mps 743 mmHg 46%
    14:00 +6°C° 0 mm 2 mps 743 mmHg 47%
    15:00 +6°C° 0 mm 2 mps 743 mmHg 47%
    16:00 +4°C° 0 mm 2 mps 743 mmHg 53%
    17:00 +3°C° 0 mm 2 mps 743 mmHg 59%
    18:00 +2°C° 0 mm 1 mps 743 mmHg 64%
    19:00 +2°C° 0 mm 1 mps 743 mmHg 67%
    20:00 +1°C° 0 mm 1 mps 743 mmHg 69%
    21:00 +1°C° 0 mm 1 mps 744 mmHg 71%
    22:00 +1°C° 0 mm 1 mps 743 mmHg 72%
    23:00 0°C° 0 mm 1 mps 743 mmHg 73%

    24 November, Sunday

    Time Temperature Precipitation Wind Pressure Humidity
    00:00 0°C° 0 mm 1 mps 743 mmHg 73%
    01:00 -2°C° 0 mm 2 mps 743 mmHg 73%
    02:00 -2°C° 0 mm 2 mps 743 mmHg 73%
    03:00 -2°C° 0 mm 2 mps 743 mmHg 73%
    04:00 -2°C° 0 mm 2 mps 743 mmHg 74%
    05:00 -2°C° 0 mm 2 mps 743 mmHg 75%
    06:00 -2°C° 0 mm 2 mps 743 mmHg 76%
    07:00 -1°C° 0 mm 3 mps 743 mmHg 71%
    08:00 +1°C° 0 mm 3 mps 743 mmHg 66%
    09:00 +3°C° 0 mm 3 mps 744 mmHg 61%
    10:00 +4°C° 0 mm 3 mps 743 mmHg 59%
    11:00 +7°C° 0 mm 3 mps 743 mmHg 56%
    12:00 +9°C° 0 mm 3 mps 743 mmHg 54%
    13:00 +9°C° 0 mm 3 mps 742 mmHg 57%
    14:00 +9°C° 0 mm 3 mps 742 mmHg 59%
    15:00 +9°C° 0 mm 3 mps 741 mmHg 62%
    16:00 +7°C° 0 mm 2 mps 741 mmHg 69%
    17:00 +5°C° 0 mm 2 mps 741 mmHg 76%
    18:00 +3°C° 0 mm 2 mps 741 mmHg 83%
    19:00 +3°C° 0 mm 2 mps 741 mmHg 84%
    20:00 +2°C° 0 mm 2 mps 741 mmHg 85%
    21:00 +2°C° 0 mm 2 mps 741 mmHg 86%
    22:00 +2°C° 0 mm 2 mps 741 mmHg 86%
    23:00 +2°C° 0 mm 2 mps 741 mmHg 85%
    Show more